This is the latest recevied weather packets stored in our database for station/object K9MWD. If no packets are shown the sender has not sent any weather packets the latest 10 day(s).
| Time | Temp. | Humidity | Pressure | Rain* | Wind** | Luminosity | Snow |
|---|---|---|---|---|---|---|---|
| 1788469419 | 31.67° C | 62% | 1012 hPa | 0 mm | - | 309 W/m² | - |
| 1788469119 | 31.67° C | 63% | 1012 hPa | 0 mm | - | 299 W/m² | - |
| 1788468818 | 31.67° C | 64% | 1011.9 hPa | 0 mm | - | 349 W/m² | - |
| 1788468513 | 31.11° C | 64% | 1012.1 hPa | 0 mm | - | 260 W/m² | - |
| 1788468210 | 31.11° C | 64% | 1012 hPa | 0 mm | - | 280 W/m² | - |
| 1788467905 | 31.11° C | 64% | 1012.3 hPa | 0 mm | - | 296 W/m² | - |
| 1788467601 | 31.11° C | 65% | 1012.3 hPa | 0 mm | - | 305 W/m² | - |
| 1788467300 | 30.56° C | 66% | 1012.3 hPa | 0 mm | - | 294 W/m² | - |
| 1788466996 | 30.56° C | 66% | 1012.3 hPa | 0 mm | - | 313 W/m² | - |
| 1788466695 | 30.56° C | 67% | 1012.6 hPa | 0 mm | - | 320 W/m² | - |
| 1788466391 | 30.56° C | 66% | 1012.6 hPa | 0 mm | - | 312 W/m² | - |
| 1788466089 | 30.56° C | 66% | 1012.5 hPa | 0 mm | - | 327 W/m² | - |
| 1788465785 | 30.56° C | 67% | 1012.4 hPa | 0 mm | - | 332 W/m² | - |
| 1788465480 | 30.56° C | 66% | 1012.2 hPa | 0 mm | - | 386 W/m² | - |
| 1788465176 | 30.56° C | 67% | 1012.6 hPa | 0 mm | - | 459 W/m² | - |
| 1788464871 | 30.56° C | 67% | 1012.5 hPa | 0 mm | - | 465 W/m² | - |
| 1788464567 | 31.11° C | 65% | 1012.7 hPa | 0 mm | - | 463 W/m² | - |
| 1788464262 | 30.56° C | 66% | 1012.6 hPa | 0 mm | - | 452 W/m² | - |
| 1788463957 | 31.11° C | 66% | 1012.6 hPa | 0 mm | - | 657 W/m² | - |
| 1788463653 | 30.56° C | 68% | 1012.7 hPa | 0 mm | - | 611 W/m² | - |
| 1788463349 | 30° C | 67% | 1013 hPa | 0 mm | - | 481 W/m² | - |
| 1788463045 | 30° C | 69% | 1013 hPa | 0 mm | - | 431 W/m² | - |
| 1788462740 | 30° C | 68% | 1013 hPa | 0 mm | - | 506 W/m² | - |
| 1788462435 | 30° C | 68% | 1013.3 hPa | 0 mm | - | 439 W/m² | - |
| 1788462134 | 30° C | 68% | 1013.1 hPa | 0 mm | - | 419 W/m² | - |
* Rain latest hour (hover to see other rain measurements)
** Current wind speed in m/s (hover to see current wind gust speed)